Cloquet, MN

8:40 AM CDT on October 23, 2019 (GMT -0500)
Cloquet Carlton County

Weather History for KCOQ - September, 2019

Change the Weather History Date:

Sunday, September 15, 2019

  Actual Average Record
Temperature  
Mean Temperature 62 °F -  
Max Temperature 73 °F 64 °F 80 °F (2015)
Min Temperature 51 °F 45 °F 24 °F (2007)
Degree Days  
Heating Degree Days 3    
Growing Degree Days 12 (Base 50)    
Moisture  
Dew Point 53 °F    
Average Humidity 84    
Maximum Humidity 94    
Minimum Humidity 61    
Precipitation  
Precipitation 0.00 in - - ()
Sea Level Pressure  
Sea Level Pressure 30.00 in    
Wind  
Wind Speed 3 mph ()    
Max Wind Speed 8 mph    
Max Gust Speed -    
Visibility 7.5 miles    
Events Fog    
Averages and records for this station are not official NWS values.
T = Trace of Precipitation, MM = Missing Value Source: Averaged Metar Reports

Daily Weather History Graph

Daily Weather History Graph

Search for Another Location

Airport or City:

Astronomy

Sep. 15, 2019 Rise Set
Actual Time 6:47 AM CDT 7:22 PM CDT
Civil Twilight 6:17 AM CDT 7:52 PM CDT
Nautical Twilight 5:40 AM CDT 8:28 PM CDT
Astronomical Twilight 5:03 AM CDT 9:05 PM CDT
Moon 8:26 PM CDT (9/15) 7:59 AM CDT (9/15)
Length of Visible Light 13h 35m
Length of Day
12h 34m
Full, 98% of the Moon is Illuminated
Sep 15
Full
Sep 21
Last Quarter
Sep 28
New
Oct 5
First Quarter
Oct 13
Full

Hourly Weather History & Observations

Time (CDT) Temp. Dew Point Humidity Pressure Visibility Wind Dir Wind Speed Gust Speed Precip Events Conditions
12:15 AM 53.6 °F 51.8 °F 94% 29.99 in 10.0 mi East 3.5 mph - N/A   Clear
12:16 AM 53.6 °F 51.8 °F 94% 29.99 in 10.0 mi East 3.5 mph - N/A   Clear
12:35 AM 53.6 °F 51.8 °F 94% 29.98 in 10.0 mi East 3.5 mph - N/A   Clear
12:55 AM 53.6 °F 51.8 °F 94% 29.99 in 10.0 mi East 3.5 mph - N/A   Scattered Clouds
12:56 AM 53.6 °F 51.8 °F 94% 29.99 in 10.0 mi Calm Calm - N/A   Mostly Cloudy
1:15 AM 53.6 °F 50.0 °F 88% 29.98 in 10.0 mi East 3.5 mph - N/A   Mostly Cloudy
1:35 AM 53.6 °F 50.0 °F 88% 29.98 in 10.0 mi ESE 3.5 mph - N/A   Mostly Cloudy
2:15 AM 53.6 °F 50.0 °F 88% 29.98 in 10.0 mi East 3.5 mph - N/A   Overcast
2:16 AM 53.6 °F 50.0 °F 88% 29.98 in 10.0 mi East 3.5 mph - N/A   Overcast
2:35 AM 53.6 °F 50.0 °F 88% 29.98 in 10.0 mi Calm Calm - N/A   Overcast
2:36 AM 53.6 °F 50.0 °F 88% 29.98 in 10.0 mi ESE 3.5 mph - N/A   Overcast
2:55 AM 53.6 °F 50.0 °F 88% 29.97 in 10.0 mi East 6.9 mph - N/A   Overcast
3:15 AM 53.6 °F 48.2 °F 82% 29.97 in 10.0 mi ESE 3.5 mph - N/A   Overcast
3:16 AM 53.6 °F 48.2 °F 82% 29.97 in 10.0 mi Calm Calm - N/A   Overcast
3:35 AM 53.6 °F 48.2 °F 82% 29.97 in 10.0 mi ESE 4.6 mph - N/A   Overcast
3:55 AM 53.6 °F 48.2 °F 82% 29.97 in 10.0 mi East 4.6 mph - N/A   Overcast
3:56 AM 53.6 °F 48.2 °F 82% 29.97 in 10.0 mi East 4.6 mph - N/A   Overcast
4:15 AM 53.6 °F 48.2 °F 82% 29.97 in 10.0 mi East 5.8 mph - N/A   Overcast
4:16 AM 53.6 °F 48.2 °F 82% 29.97 in 10.0 mi East 4.6 mph - N/A   Overcast
4:35 AM 53.6 °F 48.2 °F 82% 29.97 in 10.0 mi East 3.5 mph - N/A   Overcast
4:55 AM 53.6 °F 48.2 °F 82% 29.97 in 10.0 mi East 5.8 mph - N/A   Overcast
5:15 AM 53.6 °F 48.2 °F 82% 29.97 in 10.0 mi East 4.6 mph - N/A   Overcast
5:35 AM 51.8 °F 48.2 °F 88% 29.97 in 10.0 mi East 5.8 mph - N/A   Overcast
5:55 AM 51.8 °F 48.2 °F 88% 29.97 in 7.0 mi East 8.1 mph - N/A   Overcast
6:15 AM 51.8 °F 48.2 °F 88% 29.98 in 4.0 mi ESE 4.6 mph - N/A   Overcast
6:35 AM 51.8 °F 48.2 °F 88% 29.98 in 2.5 mi East 4.6 mph - N/A   Overcast
6:36 AM 51.8 °F 48.2 °F 88% 29.98 in 2.5 mi East 4.6 mph - N/A   Overcast
6:55 AM 51.8 °F 48.2 °F 88% 29.99 in 1.5 mi Calm Calm - N/A   Overcast
6:56 AM 51.8 °F 48.2 °F 88% 29.99 in 1.5 mi East 3.5 mph - N/A   Overcast
7:15 AM 51.8 °F 48.2 °F 88% 29.99 in 1.5 mi Calm Calm - N/A   Overcast
7:16 AM 51.8 °F 48.2 °F 88% 29.99 in 1.5 mi Calm Calm - N/A   Overcast
7:35 AM 51.8 °F 48.2 °F 88% 29.99 in 1.0 mi Calm Calm - N/A   Overcast
7:55 AM 51.8 °F 48.2 °F 88% 29.99 in 0.8 mi Calm Calm - N/A   Overcast
7:56 AM 51.8 °F 48.2 °F 88% 29.99 in 0.8 mi Calm Calm - N/A   Overcast
8:15 AM 51.8 °F 48.2 °F 88% 29.99 in 0.8 mi East 3.5 mph - N/A   Overcast
8:16 AM 51.8 °F 48.2 °F 88% 29.99 in 0.8 mi East 3.5 mph - N/A   Overcast
8:55 AM 51.8 °F 50.0 °F 94% 30.00 in 1.0 mi East 3.5 mph - N/A   Overcast
8:56 AM 51.8 °F 50.0 °F 94% 30.00 in 1.0 mi East 3.5 mph - N/A   Overcast
9:15 AM 51.8 °F 50.0 °F 94% 30.00 in 1.0 mi East 3.5 mph - N/A   Overcast
9:35 AM 53.6 °F 51.8 °F 94% 30.00 in 1.2 mi East 3.5 mph - N/A   Overcast
9:36 AM 53.6 °F 51.8 °F 94% 30.01 in 1.2 mi East 3.5 mph - N/A   Overcast
9:55 AM 53.6 °F 51.8 °F 94% 30.01 in 1.2 mi Calm Calm - N/A   Overcast
10:15 AM 53.6 °F 51.8 °F 94% 30.02 in 1.5 mi Calm Calm - N/A   Overcast
10:16 AM 53.6 °F 51.8 °F 94% 30.02 in 1.5 mi Calm Calm - N/A   Overcast
10:35 AM 55.4 °F 51.8 °F 88% 30.02 in 2.5 mi ESE 3.5 mph - N/A   Overcast
10:36 AM 55.4 °F 51.8 °F 88% 30.02 in 2.5 mi Calm Calm - N/A   Overcast
10:55 AM 55.4 °F 51.8 °F 88% 30.02 in 4.0 mi Calm Calm - N/A   Overcast
10:56 AM 55.4 °F 51.8 °F 88% 30.02 in 3.0 mi Calm Calm - N/A   Overcast
11:15 AM 55.4 °F 53.6 °F 94% 30.02 in 7.0 mi SSE 3.5 mph - N/A   Overcast
11:35 AM 55.4 °F 53.6 °F 94% 30.02 in 4.0 mi Calm Calm - N/A   Overcast
11:55 AM 57.2 °F 53.6 °F 88% 30.02 in 7.0 mi Calm Calm - N/A   Overcast
12:15 PM 60.8 °F 55.4 °F 82% 30.02 in 10.0 mi SSW 3.5 mph - N/A   Overcast
12:16 PM 60.8 °F 55.4 °F 82% 30.02 in 10.0 mi Calm Calm - N/A   Overcast
12:35 PM 60.8 °F 55.4 °F 82% 30.02 in 10.0 mi SE 3.5 mph - N/A   Overcast
12:36 PM 60.8 °F 55.4 °F 82% 30.02 in 10.0 mi SE 4.6 mph - N/A   Overcast
12:55 PM 62.6 °F 55.4 °F 77% 30.02 in 10.0 mi SE 3.5 mph - N/A   Overcast
12:56 PM 62.6 °F 55.4 °F 77% 30.02 in 10.0 mi Calm Calm - N/A   Overcast
1:15 PM 64.4 °F 57.2 °F 77% 30.01 in 10.0 mi Calm Calm - N/A   Scattered Clouds
1:16 PM 64.4 °F 57.2 °F 77% 30.01 in 10.0 mi Calm Calm - N/A   Scattered Clouds
1:35 PM 66.2 °F 57.2 °F 73% 30.00 in 10.0 mi Calm Calm - N/A   Clear
1:36 PM 66.2 °F 57.2 °F 73% 30.00 in 10.0 mi Calm Calm - N/A   Clear
1:55 PM 66.2 °F 57.2 °F 73% 30.00 in 10.0 mi SSE 4.6 mph - N/A   Clear
2:15 PM 66.2 °F 57.2 °F 73% 30.01 in 10.0 mi SSE 5.8 mph - N/A   Clear
2:16 PM 66.2 °F 57.2 °F 73% 30.01 in 10.0 mi SSE 5.8 mph - N/A   Clear
2:35 PM 68.0 °F 57.2 °F 68% 30.00 in 10.0 mi SE 3.5 mph - N/A   Clear
2:36 PM 68.0 °F 57.2 °F 68% 30.00 in 10.0 mi SE 3.5 mph - N/A   Clear
2:55 PM 68.0 °F 57.2 °F 68% 30.00 in 10.0 mi SSE 3.5 mph - N/A   Clear
3:15 PM 69.8 °F 59.0 °F 68% 29.99 in 10.0 mi SSE 4.6 mph - N/A   Clear
3:16 PM 69.8 °F 59.0 °F 68% 29.99 in 10.0 mi SE 5.8 mph - N/A   Clear
3:35 PM 69.8 °F 59.0 °F 68% 29.98 in 10.0 mi SSE 5.8 mph - N/A   Clear
3:55 PM 71.6 °F 59.0 °F 64% 29.98 in 10.0 mi SSE 5.8 mph - N/A   Clear
4:15 PM 71.6 °F 60.8 °F 69% 29.98 in 10.0 mi South 4.6 mph - N/A   Clear
4:16 PM 71.6 °F 60.8 °F 69% 29.98 in 10.0 mi SSE 4.6 mph - N/A   Clear
4:35 PM 71.6 °F 60.8 °F 69% 29.98 in 10.0 mi South 5.8 mph - N/A   Clear
4:55 PM 73.4 °F 62.6 °F 69% 29.98 in 10.0 mi South 5.8 mph - N/A   Clear
5:15 PM 73.4 °F 60.8 °F 65% 29.98 in 10.0 mi SSE 4.6 mph - N/A   Clear
5:35 PM 73.4 °F 59.0 °F 61% 29.98 in 10.0 mi SSW 5.8 mph - N/A   Clear
5:55 PM 71.6 °F 59.0 °F 64% 29.98 in 10.0 mi South 3.5 mph - N/A   Clear
6:15 PM 71.6 °F 59.0 °F 64% 29.98 in 10.0 mi Calm Calm - N/A   Clear
6:35 PM 71.6 °F 59.0 °F 64% 29.98 in 10.0 mi Calm Calm - N/A   Clear
6:55 PM 68.0 °F 60.8 °F 78% 29.99 in 10.0 mi ESE 3.5 mph - N/A   Clear
6:56 PM 68.0 °F 60.8 °F 78% 29.99 in 10.0 mi ESE 3.5 mph - N/A   Clear
7:15 PM 66.2 °F 60.8 °F 83% 29.99 in 10.0 mi Calm Calm - N/A   Clear
7:35 PM 64.4 °F 59.0 °F 83% 30.00 in 10.0 mi ESE 3.5 mph - N/A   Clear
7:36 PM 64.4 °F 59.0 °F 83% 30.00 in 10.0 mi ESE 3.5 mph - N/A   Clear
7:55 PM 62.6 °F 59.0 °F 88% 30.00 in 10.0 mi Calm Calm - N/A   Clear
8:15 PM 62.6 °F 57.2 °F 82% 30.00 in 10.0 mi ESE 3.5 mph - N/A   Clear
8:16 PM 62.6 °F 57.2 °F 82% 30.00 in 10.0 mi ESE 3.5 mph - N/A   Clear
8:35 PM 60.8 °F 57.2 °F 88% 30.00 in 10.0 mi ESE 3.5 mph - N/A   Clear
8:36 PM 60.8 °F 57.2 °F 88% 30.00 in 10.0 mi ESE 3.5 mph - N/A   Clear
8:55 PM 59.0 °F 55.4 °F 88% 30.00 in 10.0 mi ESE 3.5 mph - N/A   Clear
9:15 PM 59.0 °F 55.4 °F 88% 30.00 in 10.0 mi Calm Calm - N/A   Clear
9:16 PM 59.0 °F 55.4 °F 88% 30.00 in 10.0 mi Calm Calm - N/A   Clear
9:35 PM 57.2 °F 55.4 °F 94% 30.00 in 10.0 mi Calm Calm - N/A   Clear
9:55 PM 57.2 °F 53.6 °F 88% 30.01 in 10.0 mi Calm Calm - N/A   Clear
10:15 PM 57.2 °F 53.6 °F 88% 30.01 in 10.0 mi ESE 3.5 mph - N/A   Clear
10:35 PM 55.4 °F 53.6 °F 94% 30.02 in 10.0 mi ESE 3.5 mph - N/A   Clear
10:36 PM 55.4 °F 53.6 °F 94% 30.02 in 10.0 mi ESE 4.6 mph - N/A   Clear
10:55 PM 55.4 °F 51.8 °F 88% 30.02 in 7.0 mi ESE 3.5 mph - N/A   Clear
10:56 PM 55.4 °F 51.8 °F 88% 30.02 in 7.0 mi ESE 3.5 mph - N/A   Clear
11:15 PM 55.4 °F 51.8 °F 88% 30.03 in 1.0 mi ESE 3.5 mph - N/A   Overcast
11:35 PM 53.6 °F 51.8 °F 94% 30.02 in 0.5 mi ESE 3.5 mph - N/A Fog Fog
11:55 PM 53.6 °F 51.8 °F 94% 30.02 in 0.2 mi Calm Calm - N/A Fog Fog
11:56 PM 53.6 °F 51.8 °F 94% 30.02 in 0.2 mi Calm Calm - N/A Fog Fog